Time,TemperatureF,DewpointF,PressureIn,WindDirection,WindDirectionDegrees,WindSpeedMPH,WindSpeedGustMPH,Humidity,HourlyPrecipIn,Conditions,Clouds,dailyrainin,SoftwareType,DateUTC
2013-03-06 00:21:00,52.0,45.0,30.11,West,273,1.0,-999.0,78,-99.99,,,-99.99,,2013-03-06 08:21:00,
2013-03-06 00:32:00,52.0,45.0,30.11,West,273,1.0,-999.0,78,-99.99,,,-99.99,,2013-03-06 08:32:00,
2013-03-06 00:42:00,52.0,45.0,30.11,West,273,1.0,-999.0,78,-99.99,,,-99.99,,2013-03-06 08:42:00,
2013-03-06 00:52:00,51.0,44.0,30.11,West,273,1.0,-999.0,78,-99.99,,,-99.99,,2013-03-06 08:52:00,
2013-03-06 01:01:00,51.0,44.0,30.11,West,273,1.0,-999.0,78,-99.99,,,-99.99,,2013-03-06 09:01:00,
2013-03-06 01:12:00,51.0,44.0,30.11,West,273,1.0,-999.0,78,-99.99,,,-99.99,,2013-03-06 09:12:00,
2013-03-06 01:21:00,51.0,44.0,30.13,West,273,0.0,-999.0,78,-99.99,,,-99.99,,2013-03-06 09:21:00,
2013-03-06 01:31:00,51.0,44.0,30.13,West,273,0.0,-999.0,78,-99.99,,,-99.99,,2013-03-06 09:31:00,
2013-03-06 01:42:00,51.0,44.0,30.13,West,273,0.0,-999.0,78,-99.99,,,-99.99,,2013-03-06 09:42:00,
2013-03-06 01:52:00,51.0,44.0,30.12,West,273,0.0,-999.0,77,-99.99,,,-99.99,,2013-03-06 09:52:00,
2013-03-06 02:01:00,51.0,44.0,30.12,West,273,0.0,-999.0,77,-99.99,,,-99.99,,2013-03-06 10:01:00,
2013-03-06 02:11:00,51.0,44.0,30.12,West,273,0.0,-999.0,77,-99.99,,,-99.99,,2013-03-06 10:11:00,
2013-03-06 02:21:00,51.0,44.0,30.13,West,273,1.0,-999.0,76,-99.99,,,-99.99,,2013-03-06 10:21:00,
2013-03-06 02:31:00,51.0,44.0,30.13,West,273,1.0,-999.0,76,-99.99,,,-99.99,,2013-03-06 10:31:00,
2013-03-06 02:42:00,51.0,44.0,30.13,West,273,1.0,-999.0,76,-99.99,,,-99.99,,2013-03-06 10:42:00,
2013-03-06 02:52:00,51.0,44.0,30.13,West,273,1.0,-999.0,76,-99.99,,,-99.99,,2013-03-06 10:52:00,
2013-03-06 03:01:00,51.0,44.0,30.13,West,273,1.0,-999.0,76,-99.99,,,-99.99,,2013-03-06 11:01:00,
2013-03-06 03:11:00,51.0,44.0,30.13,West,273,1.0,-999.0,76,-99.99,,,-99.99,,2013-03-06 11:11:00,
2013-03-06 03:22:00,51.0,46.0,30.11,West,265,2.0,-999.0,82,-99.99,,,-99.99,,2013-03-06 11:22:00,
2013-03-06 03:31:00,51.0,46.0,30.11,West,265,2.0,-999.0,82,-99.99,,,-99.99,,2013-03-06 11:31:00,
2013-03-06 03:42:00,51.0,46.0,30.11,West,265,2.0,-999.0,82,-99.99,,,-99.99,,2013-03-06 11:42:00,
2013-03-06 03:52:00,51.0,46.0,30.11,West,265,2.0,-999.0,82,-99.99,,,-99.99,,2013-03-06 11:52:00,
2013-03-06 04:01:00,51.0,46.0,30.11,West,265,2.0,-999.0,82,-99.99,,,-99.99,,2013-03-06 12:01:00,
2013-03-06 04:22:00,50.0,45.0,30.11,SW,227,1.0,-999.0,84,-99.99,,,-99.99,,2013-03-06 12:22:00,
2013-03-06 04:33:00,50.0,45.0,30.11,SW,227,1.0,-999.0,84,-99.99,,,-99.99,,2013-03-06 12:33:00,
2013-03-06 04:42:00,50.0,45.0,30.11,SW,227,1.0,-999.0,84,-99.99,,,-99.99,,2013-03-06 12:42:00,
2013-03-06 04:52:00,49.0,45.0,30.11,SW,227,0.0,-999.0,85,-99.99,,,-99.99,,2013-03-06 12:52:00,
2013-03-06 05:01:00,49.0,45.0,30.11,SW,227,0.0,-999.0,85,-99.99,,,-99.99,,2013-03-06 13:01:00,
2013-03-06 05:11:00,49.0,45.0,30.11,SW,227,0.0,-999.0,85,-99.99,,,-99.99,,2013-03-06 13:11:00,
2013-03-06 05:21:00,49.0,45.0,30.11,SW,227,0.0,-999.0,85,-99.99,,,-99.99,,2013-03-06 13:21:00,
2013-03-06 05:31:00,49.0,45.0,30.11,SW,227,0.0,-999.0,85,-99.99,,,-99.99,,2013-03-06 13:31:00,
2013-03-06 06:22:00,47.0,43.0,30.11,NNE,15,2.0,-999.0,86,-99.99,,,-99.99,,2013-03-06 14:22:00,
2013-03-06 06:32:00,47.0,43.0,30.11,NNE,15,2.0,-999.0,86,-99.99,,,-99.99,,2013-03-06 14:32:00,
2013-03-06 06:42:00,47.0,43.0,30.11,NNE,15,2.0,-999.0,86,-99.99,,,-99.99,,2013-03-06 14:42:00,
2013-03-06 06:52:00,47.0,43.0,30.11,NNE,15,2.0,-999.0,86,-99.99,,,-99.99,,2013-03-06 14:52:00,
2013-03-06 07:01:00,47.0,43.0,30.11,NNE,15,2.0,-999.0,86,-99.99,,,-99.99,,2013-03-06 15:01:00,
2013-03-06 08:21:00,51.0,45.0,30.14,NNE,15,1.0,-999.0,81,-99.99,,,-99.99,,2013-03-06 16:21:00,
2013-03-06 08:32:00,51.0,45.0,30.14,NNE,15,1.0,-999.0,81,-99.99,,,-99.99,,2013-03-06 16:32:00,
2013-03-06 08:42:00,51.0,45.0,30.14,NNE,15,1.0,-999.0,81,-99.99,,,-99.99,,2013-03-06 16:42:00,
2013-03-06 08:52:00,51.0,45.0,30.14,NNE,15,1.0,-999.0,81,-99.99,,,-99.99,,2013-03-06 16:52:00,
2013-03-06 09:01:00,51.0,45.0,30.14,NNE,15,1.0,-999.0,81,-99.99,,,-99.99,,2013-03-06 17:01:00,
2013-03-06 09:22:00,54.0,43.0,30.14,ENE,63,2.0,-999.0,67,-99.99,,,-99.99,,2013-03-06 17:22:00,
2013-03-06 09:32:00,54.0,43.0,30.14,ENE,63,2.0,-999.0,67,-99.99,,,-99.99,,2013-03-06 17:32:00,
2013-03-06 09:42:00,54.0,43.0,30.14,ENE,63,2.0,-999.0,67,-99.99,,,-99.99,,2013-03-06 17:42:00,
2013-03-06 09:52:00,54.0,43.0,30.14,ENE,63,2.0,-999.0,67,-99.99,,,-99.99,,2013-03-06 17:52:00,
2013-03-06 10:01:00,54.0,43.0,30.14,ENE,63,2.0,-999.0,67,-99.99,,,-99.99,,2013-03-06 18:01:00,
2013-03-06 12:22:00,56.0,44.0,30.14,South,189,8.0,-999.0,65,-99.99,,,-99.99,,2013-03-06 20:22:00,
2013-03-06 12:33:00,56.0,44.0,30.14,South,189,8.0,-999.0,65,-99.99,,,-99.99,,2013-03-06 20:33:00,
2013-03-06 12:42:00,56.0,44.0,30.14,South,189,8.0,-999.0,65,-99.99,,,-99.99,,2013-03-06 20:42:00,
2013-03-06 12:52:00,56.0,44.0,30.14,South,189,8.0,-999.0,65,-99.99,,,-99.99,,2013-03-06 20:52:00,
2013-03-06 13:01:00,56.0,44.0,30.14,South,189,8.0,-999.0,65,-99.99,,,-99.99,,2013-03-06 21:01:00,
2013-03-06 13:22:00,56.0,46.0,30.11,SW,229,5.0,-999.0,68,-99.99,,,-99.99,,2013-03-06 21:22:00,
2013-03-06 13:32:00,56.0,46.0,30.11,SW,229,5.0,-999.0,68,-99.99,,,-99.99,,2013-03-06 21:32:00,
2013-03-06 13:42:00,56.0,46.0,30.11,SW,229,5.0,-999.0,68,-99.99,,,-99.99,,2013-03-06 21:42:00,
2013-03-06 13:52:00,56.0,46.0,30.11,SW,229,5.0,-999.0,68,-99.99,,,-99.99,,2013-03-06 21:52:00,
2013-03-06 14:01:00,56.0,46.0,30.11,SW,229,5.0,-999.0,68,-99.99,,,-99.99,,2013-03-06 22:01:00,
2013-03-06 14:22:00,56.0,46.0,30.09,SSE,156,5.0,-999.0,70,-99.99,,,-99.99,,2013-03-06 22:22:00,
2013-03-06 14:32:00,56.0,46.0,30.09,SSE,156,5.0,-999.0,70,-99.99,,,-99.99,,2013-03-06 22:32:00,
2013-03-06 14:42:00,56.0,46.0,30.09,SSE,156,5.0,-999.0,70,-99.99,,,-99.99,,2013-03-06 22:42:00,
2013-03-06 14:52:00,56.0,46.0,30.09,SSE,156,5.0,-999.0,70,-99.99,,,-99.99,,2013-03-06 22:52:00,
2013-03-06 15:01:00,56.0,46.0,30.09,SSE,156,5.0,-999.0,70,-99.99,,,-99.99,,2013-03-06 23:01:00,
2013-03-06 15:22:00,55.0,48.0,30.08,SSW,201,8.0,-999.0,76,-99.99,,,-99.99,,2013-03-06 23:22:00,
2013-03-06 15:32:00,55.0,48.0,30.08,SSW,201,8.0,-999.0,76,-99.99,,,-99.99,,2013-03-06 23:32:00,
2013-03-06 15:42:00,55.0,48.0,30.08,SSW,201,8.0,-999.0,76,-99.99,,,-99.99,,2013-03-06 23:42:00,
2013-03-06 15:52:00,54.0,48.0,30.07,SSW,194,9.0,-999.0,79,-99.99,,,-99.99,,2013-03-06 23:52:00,
2013-03-06 16:01:00,54.0,48.0,30.07,SSW,194,9.0,-999.0,79,-99.99,,,-99.99,,2013-03-07 00:01:00,
2013-03-06 16:11:00,54.0,48.0,30.07,SSW,194,9.0,-999.0,79,-99.99,,,-99.99,,2013-03-07 00:11:00,
2013-03-06 16:21:00,54.0,48.0,30.07,SSW,194,9.0,-999.0,79,-99.99,,,-99.99,,2013-03-07 00:21:00,
2013-03-06 16:31:00,54.0,48.0,30.07,SSW,194,9.0,-999.0,79,-99.99,,,-99.99,,2013-03-07 00:31:00,
2013-03-06 17:52:00,53.0,48.0,30.05,SSW,205,4.0,-999.0,82,-99.99,,,-99.99,,2013-03-07 01:52:00,
2013-03-06 18:01:00,53.0,48.0,30.05,SSW,205,4.0,-999.0,82,-99.99,,,-99.99,,2013-03-07 02:01:00,
2013-03-06 18:11:00,53.0,48.0,30.05,SSW,205,4.0,-999.0,82,-99.99,,,-99.99,,2013-03-07 02:11:00,
2013-03-06 18:21:00,53.0,48.0,30.05,SSW,205,4.0,-999.0,82,-99.99,,,-99.99,,2013-03-07 02:21:00,
2013-03-06 18:31:00,53.0,48.0,30.05,SSW,205,4.0,-999.0,82,-99.99,,,-99.99,,2013-03-07 02:31:00,
2013-03-06 19:01:00,53.0,48.0,30.04,SSW,205,1.0,-999.0,82,-99.99,,,-99.99,,2013-03-07 03:01:00,
2013-03-06 19:11:00,53.0,48.0,30.04,SSW,204,1.0,-999.0,82,-99.99,,,-99.99,,2013-03-07 03:11:00,
2013-03-06 19:21:00,53.0,48.0,30.04,SSW,204,1.0,-999.0,82,-99.99,,,-99.99,,2013-03-07 03:21:00,
2013-03-06 19:31:00,53.0,48.0,30.04,SSW,204,1.0,-999.0,82,-99.99,,,-99.99,,2013-03-07 03:31:00,
2013-03-06 19:42:00,53.0,48.0,30.04,SSW,204,1.0,-999.0,82,-99.99,,,-99.99,,2013-03-07 03:42:00,
2013-03-06 19:52:00,53.0,48.0,30.04,SSW,204,1.0,-999.0,82,-99.99,,,-99.99,,2013-03-07 03:52:00,
2013-03-06 20:01:00,53.0,48.0,30.04,SSW,204,1.0,-999.0,82,-99.99,,,-99.99,,2013-03-07 04:01:00,
2013-03-06 20:52:00,52.0,48.0,30.03,SSW,204,1.0,-999.0,87,-99.99,,,-99.99,,2013-03-07 04:52:00,
2013-03-06 21:01:00,52.0,48.0,30.03,SSW,204,1.0,-999.0,87,-99.99,,,-99.99,,2013-03-07 05:01:00,
2013-03-06 21:12:00,52.0,48.0,30.03,SSW,204,1.0,-999.0,87,-99.99,,,-99.99,,2013-03-07 05:12:00,
2013-03-06 21:22:00,52.0,48.0,30.03,SSW,204,1.0,-999.0,87,-99.99,,,-99.99,,2013-03-07 05:22:00,
2013-03-06 21:31:00,52.0,48.0,30.03,SSW,204,1.0,-999.0,87,-99.99,,,-99.99,,2013-03-07 05:31:00,
2013-03-06 21:52:00,52.0,48.0,30.04,SSW,205,2.0,-999.0,87,-99.99,,,-99.99,,2013-03-07 05:52:00,
2013-03-06 22:01:00,52.0,48.0,30.04,SSW,205,2.0,-999.0,87,-99.99,,,-99.99,,2013-03-07 06:01:00,
2013-03-06 22:11:00,52.0,48.0,30.04,SSW,205,2.0,-999.0,87,-99.99,,,-99.99,,2013-03-07 06:11:00,
2013-03-06 22:21:00,52.0,48.0,30.03,SSW,205,2.0,-999.0,87,-99.99,,,-99.99,,2013-03-07 06:21:00,
2013-03-06 22:31:00,52.0,48.0,30.03,SSW,205,2.0,-999.0,87,-99.99,,,-99.99,,2013-03-07 06:31:00,
2013-03-06 22:42:00,52.0,48.0,30.03,SSW,205,1.0,-999.0,86,-99.99,,,-99.99,,2013-03-07 06:42:00,
2013-03-06 22:52:00,52.0,48.0,30.03,SSW,205,1.0,-999.0,86,-99.99,,,-99.99,,2013-03-07 06:52:00,
2013-03-06 23:01:00,52.0,48.0,30.03,SSW,205,1.0,-999.0,86,-99.99,,,-99.99,,2013-03-07 07:01:00,
2013-03-06 23:11:00,52.0,48.0,30.03,SSW,205,1.0,-999.0,86,-99.99,,,-99.99,,2013-03-07 07:11:00,
2013-03-06 23:21:00,52.0,48.0,30.02,SSW,205,1.0,-999.0,86,-99.99,,,-99.99,,2013-03-07 07:21:00,
2013-03-06 23:31:00,52.0,48.0,30.02,SSW,205,1.0,-999.0,86,-99.99,,,-99.99,,2013-03-07 07:31:00,
2013-03-06 23:43:00,52.0,48.0,30.02,SSW,205,1.0,-999.0,86,-99.99,,,-99.99,,2013-03-07 07:43:00,
2013-03-06 23:52:00,52.0,48.0,30.02,SSW,205,1.0,-999.0,86,-99.99,,,-99.99,,2013-03-07 07:52:00,